Вернуться в каталог

STARLINK-36156

АктивенСвязьVLEO
NORAD 67006·PAYLOAD·🇺🇸 United States

Запущен Dec 10, 2025 с Vandenberg Space Force Base

Loading…

Ближайшие Пролёты (ближайшие 24 часа)

TLE

СвежийSource: CelesTrak SupGP

Эпоха: Sep 14, 2026, 21:34 UTC

1 67006C 25293D   26257.89909722 -.00044140  00000+0 -37001-2 0  2572
2 67006  70.0019 337.5436 0003473 270.1818 169.3131 14.98341457    14

Отслеживайте STARLINK-36156 в реальном времени с AllMySat

Download on the App Store